Find Starlink 6030

NORAD ID: 56107 Int'l Des: 2023-046 Owner: SPXS Country: US Constellation: starlink operational
LEOCIRCULAR

現在のビュー

3D地球を読み込み中...

About Starlink 6030

Starlink 6030 (NORAD 56107) is a starlink constellation satellite (v1.5) launched Mar 29, 2023 by SPXS of US. It operates in LEO, CIRCULAR orbit with a mass of 305.00 kg.

Starlink 6030について

説明を読み込み中...

次回通過

Passes for default location (London). Set your location on the main map for personalized predictions.

高度履歴

Loading altitude history...

軌道要素

1 56107U 23046Q 26167.13454834 -.00000659 00000-0 -14439-4 0 9995
2 56107 43.0030 325.9024 0001026 264.7134 95.3600 15.27573445177081
Epoch: Jun 16, 2026 • Age: 15 hours

現在のステータス

高度 482.3 km
速度 7.63 km/s
衛星直下点 9.12°N, 43.65°W
打ち上げ日 Mar 29, 2023
運用期間 3.2 years
タイプ internet

技術仕様

分類 Payload
質量 305.00 kg
乾燥質量 290.00 kg
総質量 305.00 kg
長さ 0.20 m
直径 2.80 m
スパン 9.00 m
形状 Box + pan
製造者 SPXS
バスタイプ Starlink
フェーズステータス In Orbit
所有者/国 SPXS/US

Most Searched